Hourly Data Report for May 27, 2021

MIRAMICHI RCS
NEW BRUNSWICK
Current Station Operator: ECCC - MSC

47°00'34.000" N
65°27'54.000" W
33.00 m
8100989
71744
ACQ

Download Data

Hourly Data (May 2021)
Hourly Data Report for May 27, 2021
TIME
LST
Temp Definition
°C
Dew Point Definition
°C
Rel Hum Definition
%
Precip. Amount Definition
mm

Wind Dir Definition
10's deg

Wind Spd Definition
km/h
Visibility Definition
km
Stn Press Definition
kPa
Hmdx Definition


Wind Chill Definition


Weather Definition


00:00 21.2 17.5 79 LegendMM 23 21   99.53 27   LegendNANA
01:00 19.7 17.0 84 LegendMM 24 16   99.55     LegendNANA
02:00 18.9 16.8 88 LegendMM 24 11   99.56     LegendNANA
03:00 18.8 17.0 89 LegendMM 25 11   99.54     LegendNANA
04:00 18.6 17.0 90 LegendMM 26 11   99.54     LegendNANA
05:00 18.7 17.0 90 LegendMM 29 12   99.63     LegendNANA
06:00 18.6 14.5 77 LegendMM 30 15   99.76     LegendNANA
07:00 18.5 14.0 75 LegendMM 27 7   99.86     LegendNANA
08:00 18.6 11.7 64 LegendMM 29 15   99.94     LegendNANA
09:00 17.6 11.3 66 LegendMM 32 18   100.02     LegendNANA
10:00 18.9 9.9 56 LegendMM 29 22   100.08     LegendNANA
11:00 17.8 8.0 53 LegendMM 29 22   100.11     LegendNANA
12:00 17.6 5.8 46 LegendMM 29 23   100.19     LegendNANA
13:00 17.5 1.7 34 LegendMM 30 23   100.28     LegendNANA
14:00 17.7 1.1 33 LegendMM 30 19   100.29     LegendNANA
15:00 16.9 0.3 32 LegendMM 30 20   100.34     LegendNANA
16:00 16.1 -0.5 32 LegendMM 31 21   100.36     LegendNANA
17:00 15.2 -2.3 30 LegendMM 31 19   100.45     LegendNANA
18:00 14.3 -2.9 30 LegendMM 31 20   100.55     LegendNANA
19:00 12.2 -3.7 33 LegendMM 32 16   100.70     LegendNANA
20:00 9.7 -4.5 36 LegendMM 31 15   100.82     LegendNANA
21:00 8.0 -4.9 40 LegendMM 32 13   100.94     LegendNANA
22:00 6.8 -4.6 44 LegendMM 30 10   101.03     LegendNANA
23:00 5.4 -4.5 49 LegendMM 29 8   101.06     LegendNANA

Notes on Data Quality.

Legend

  • E = Estimated
  • M = Missing
  • NA = Not Available*
  • [empty] = Indicates an unobserved value
Date modified: